This is the latest recevied weather packets stored in our database for station/object VA2CPJ. If no packets are shown the sender has not sent any weather packets the latest 10 day(s).
| Time | Temp. | Humidity | Pressure | Rain* | Wind** | Luminosity | Snow |
|---|---|---|---|---|---|---|---|
| 1777711239 | 1.11° C | 86% | 1020.5 hPa | - | - | 0 W/m² | - |
| 1777710627 | 1.11° C | 85% | 1020.5 hPa | - | - | 0 W/m² | - |
| 1777710023 | 0.56° C | 86% | 1020.5 hPa | - | - | 0 W/m² | - |
| 1777707967 | 1.11° C | 84% | 1021.2 hPa | - | - | 0 W/m² | - |
| 1777707327 | 1.11° C | 83% | 1021.2 hPa | - | - | 0 W/m² | - |
| 1777706724 | 1.67° C | 82% | 1021.2 hPa | - | - | 0 W/m² | - |
| 1777706160 | 1.67° C | 81% | 1021.2 hPa | - | - | 0 W/m² | - |
| 1777705554 | 2.22° C | 81% | 1021.2 hPa | - | - | 0 W/m² | - |
| 1777704971 | 1.67° C | 82% | 1021.2 hPa | - | - | 0 W/m² | - |
| 1777703425 | 2.78° C | 80% | 1020.5 hPa | - | - | 0 W/m² | - |
| 1777703140 | 2.78° C | 80% | 1021.2 hPa | - | - | 0 W/m² | - |
| 1777702541 | 2.78° C | 78% | 1021.2 hPa | - | - | 0 W/m² | - |
| 1777700739 | 3.33° C | 75% | 1020.8 hPa | - | - | 0 W/m² | - |
| 1777699225 | 3.33° C | 74% | 1020.1 hPa | - | - | 0 W/m² | - |
| 1777698412 | 3.89° C | 74% | 1020.8 hPa | - | - | 0 W/m² | - |
| 1777695649 | 3.89° C | 72% | 1019.8 hPa | - | - | 0 W/m² | - |
| 1777694141 | 4.44° C | 72% | 1020.8 hPa | - | - | 0 W/m² | - |
| 1777693826 | 4.44° C | 72% | 1019.8 hPa | - | - | 0 W/m² | - |
| 1777693555 | 4.44° C | 71% | 1020.8 hPa | - | - | 0 W/m² | - |
| 1777692321 | 4.44° C | 70% | 1020.8 hPa | - | - | 0 W/m² | - |
| 1777690825 | 5° C | 68% | 1019.8 hPa | - | - | 0 W/m² | - |
| 1777690545 | 5° C | 69% | 1020.8 hPa | - | - | 0 W/m² | - |
| 1777689646 | 5° C | 68% | 1019.8 hPa | - | - | 0 W/m² | - |
| 1777689337 | 5° C | 68% | 1020.8 hPa | - | - | 0 W/m² | - |
| 1777688185 | 5.56° C | 67% | 1020.8 hPa | - | - | 0 W/m² | - |
* Rain since midnight (hover to see other rain measurements)
** Current wind speed in m/s (hover to see current wind gust speed)